Hourly Weather Barlovo

Today, 19 April, Monday

Time Temperature Precipitation Wind Pressure Humidity
00:00 +5°C° 0 mm 3 mps 749 mmHg 71%
01:00 +4°C° 0 mm 3 mps 749 mmHg 75%
02:00 +4°C° 0 mm 2 mps 750 mmHg 81%
03:00 +4°C° 0 mm 2 mps 749 mmHg 84%
04:00 +4°C° 0 mm 2 mps 749 mmHg 87%
05:00 +3°C° 0 mm 2 mps 749 mmHg 90%
06:00 +5°C° 0 mm 2 mps 749 mmHg 83%
07:00 +7°C° 0 mm 3 mps 749 mmHg 77%
08:00 +8°C° 0 mm 3 mps 750 mmHg 69%
09:00 +8°C° 0 mm 4 mps 749 mmHg 64%
10:00 +11°C° 0 mm 4 mps 749 mmHg 59%
11:00 +12°C° 0 mm 4 mps 749 mmHg 53%
12:00 +12°C° 0.1 mm 4 mps 749 mmHg 55%
13:00 +11°C° 0.1 mm 4 mps 749 mmHg 57%
14:00 +12°C° 0 mm 4 mps 749 mmHg 55%
15:00 +11°C° 0 mm 4 mps 749 mmHg 56%
16:00 +11°C° 0 mm 4 mps 749 mmHg 58%
17:00 +10°C° 0 mm 4 mps 749 mmHg 60%
18:00 +10°C° 0 mm 3 mps 749 mmHg 63%
19:00 +9°C° 0 mm 3 mps 749 mmHg 66%
20:00 +8°C° 0 mm 3 mps 749 mmHg 69%
21:00 +7°C° 0 mm 3 mps 749 mmHg 69%
22:00 +7°C° 0 mm 3 mps 749 mmHg 69%
23:00 +7°C° 0 mm 3 mps 748 mmHg 69%

Tomorrow, 20 April, Tuesday

Time Temperature Precipitation Wind Pressure Humidity
00:00 +7°C° 0 mm 3 mps 748 mmHg 70%
01:00 +5°C° 0 mm 3 mps 748 mmHg 72%
02:00 +5°C° 0 mm 3 mps 748 mmHg 73%
03:00 +4°C° 0 mm 3 mps 747 mmHg 74%
04:00 +4°C° 0 mm 3 mps 747 mmHg 75%
05:00 +3°C° 0 mm 3 mps 747 mmHg 77%
06:00 +3°C° 0 mm 3 mps 747 mmHg 76%
07:00 +3°C° 0 mm 4 mps 747 mmHg 76%
08:00 +3°C° 0 mm 4 mps 747 mmHg 75%
09:00 +4°C° 0 mm 4 mps 747 mmHg 74%
10:00 +4°C° 0 mm 4 mps 746 mmHg 74%
11:00 +4°C° 0 mm 4 mps 746 mmHg 73%
12:00 +4°C° 0.1 mm 4 mps 746 mmHg 80%
13:00 +4°C° 0.1 mm 3 mps 746 mmHg 86%
14:00 +3°C° 0.1 mm 3 mps 745 mmHg 93%
15:00 +3°C° 0.1 mm 3 mps 745 mmHg 92%
16:00 +5°C° 0.1 mm 2 mps 744 mmHg 90%
17:00 +5°C° 0.1 mm 2 mps 744 mmHg 88%
18:00 +4°C° 0 mm 3 mps 743 mmHg 87%
19:00 +4°C° 0 mm 3 mps 743 mmHg 85%
20:00 +3°C° 0 mm 3 mps 743 mmHg 84%
21:00 +3°C° 0 mm 3 mps 743 mmHg 86%
22:00 +3°C° 0 mm 2 mps 742 mmHg 88%
23:00 +3°C° 0 mm 2 mps 741 mmHg 89%

Day after tomorrow, 21 April, Wednesday

Time Temperature Precipitation Wind Pressure Humidity
00:00 +3°C° 0 mm 2 mps 741 mmHg 90%
01:00 +3°C° 0 mm 2 mps 740 mmHg 91%
02:00 +3°C° 0 mm 2 mps 739 mmHg 92%
03:00 +3°C° 0 mm 2 mps 739 mmHg 92%
04:00 +3°C° 0 mm 2 mps 738 mmHg 93%
05:00 +3°C° 0 mm 2 mps 737 mmHg 94%
06:00 +3°C° 0.2 mm 2 mps 737 mmHg 94%
07:00 +2°C° 0.2 mm 3 mps 737 mmHg 94%
08:00 +2°C° 0.2 mm 3 mps 736 mmHg 94%
09:00 +2°C° 0.3 mm 3 mps 736 mmHg 94%
10:00 +2°C° 0.3 mm 3 mps 736 mmHg 94%
11:00 +2°C° 0.3 mm 3 mps 735 mmHg 94%
12:00 +3°C° 0.1 mm 3 mps 736 mmHg 87%
13:00 +4°C° 0.1 mm 3 mps 736 mmHg 81%
14:00 +5°C° 0.1 mm 4 mps 736 mmHg 74%
15:00 +5°C° 0.1 mm 3 mps 736 mmHg 74%
16:00 +7°C° 0.1 mm 3 mps 736 mmHg 75%
17:00 +7°C° 0.1 mm 3 mps 736 mmHg 75%
18:00 +6°C° 0 mm 2 mps 736 mmHg 80%
19:00 +5°C° 0 mm 2 mps 737 mmHg 85%
20:00 +3°C° 0 mm 2 mps 737 mmHg 91%
21:00 +3°C° 0 mm 2 mps 737 mmHg 90%
22:00 +3°C° 0 mm 2 mps 737 mmHg 90%
23:00 +2°C° 0 mm 3 mps 737 mmHg 90%

22 April, Thursday

Time Temperature Precipitation Wind Pressure Humidity
00:00 +3°C° 0.1 mm 3 mps 737 mmHg 89%
01:00 +3°C° 0.1 mm 3 mps 737 mmHg 89%
02:00 +3°C° 0.1 mm 3 mps 737 mmHg 89%
03:00 +3°C° 0.1 mm 3 mps 738 mmHg 91%
04:00 +3°C° 0.1 mm 3 mps 738 mmHg 93%
05:00 +3°C° 0.1 mm 3 mps 738 mmHg 95%
06:00 +4°C° 0 mm 3 mps 738 mmHg 90%
07:00 +5°C° 0 mm 3 mps 739 mmHg 86%
08:00 +8°C° 0 mm 3 mps 739 mmHg 81%
09:00 +9°C° 0.3 mm 3 mps 739 mmHg 72%
10:00 +11°C° 0.3 mm 3 mps 739 mmHg 63%
11:00 +13°C° 0.3 mm 4 mps 740 mmHg 54%
12:00 +13°C° 0.1 mm 4 mps 740 mmHg 51%
13:00 +14°C° 0.1 mm 4 mps 740 mmHg 48%
14:00 +14°C° 0.1 mm 4 mps 740 mmHg 45%
15:00 +14°C° 0.1 mm 4 mps 740 mmHg 50%
16:00 +13°C° 0.1 mm 3 mps 740 mmHg 55%
17:00 +13°C° 0.1 mm 3 mps 740 mmHg 60%
18:00 +11°C° 0.1 mm 3 mps 740 mmHg 69%
19:00 +10°C° 0.1 mm 2 mps 741 mmHg 78%
20:00 +8°C° 0.1 mm 2 mps 741 mmHg 87%
21:00 +7°C° 0 mm 2 mps 741 mmHg 89%
22:00 +7°C° 0 mm 2 mps 741 mmHg 92%
23:00 +6°C° 0 mm 2 mps 741 mmHg 94%

23 April, Friday

Time Temperature Precipitation Wind Pressure Humidity
00:00 +6°C° 0 mm 2 mps 741 mmHg 95%
01:00 +7°C° 0 mm 1 mps 741 mmHg 95%
02:00 +6°C° 0 mm 1 mps 741 mmHg 95%
03:00 +6°C° 0 mm 2 mps 740 mmHg 93%
04:00 +6°C° 0 mm 2 mps 740 mmHg 91%
05:00 +7°C° 0 mm 3 mps 740 mmHg 89%
06:00 +7°C° 0.2 mm 3 mps 740 mmHg 89%
07:00 +5°C° 0.2 mm 3 mps 741 mmHg 89%
08:00 +5°C° 0.2 mm 3 mps 741 mmHg 90%
09:00 +7°C° 0 mm 3 mps 741 mmHg 85%
10:00 +8°C° 0 mm 3 mps 741 mmHg 80%
11:00 +8°C° 0 mm 3 mps 741 mmHg 75%
12:00 +8°C° 0.5 mm 2 mps 741 mmHg 80%
13:00 +7°C° 0.5 mm 2 mps 741 mmHg 85%
14:00 +6°C° 0.5 mm 2 mps 740 mmHg 90%
15:00 +5°C° 0.7 mm 2 mps 740 mmHg 91%
16:00 +5°C° 0.7 mm 2 mps 740 mmHg 92%
17:00 +5°C° 0.7 mm 2 mps 740 mmHg 93%
18:00 +4°C° 0.1 mm 2 mps 740 mmHg 93%
19:00 +4°C° 0.1 mm 2 mps 740 mmHg 93%
20:00 +4°C° 0.1 mm 2 mps 740 mmHg 94%
21:00 +4°C° 0.1 mm 2 mps 740 mmHg 94%
22:00 +2°C° 0.1 mm 3 mps 740 mmHg 95%
23:00 +2°C° 0.1 mm 3 mps 740 mmHg 95%

24 April, Saturday

Time Temperature Precipitation Wind Pressure Humidity
00:00 +1°C° 0 mm 3 mps 740 mmHg 96%
01:00 +1°C° 0 mm 3 mps 740 mmHg 96%
02:00 +2°C° 0 mm 2 mps 739 mmHg 96%
03:00 +1°C° 0 mm 2 mps 739 mmHg 97%
04:00 +1°C° 0 mm 2 mps 739 mmHg 97%
05:00 -1°C° 0 mm 2 mps 739 mmHg 98%
06:00 +1°C° 0.1 mm 2 mps 739 mmHg 98%
07:00 +2°C° 0.1 mm 2 mps 739 mmHg 98%
08:00 +2°C° 0.1 mm 2 mps 739 mmHg 97%
09:00 +3°C° 0.2 mm 2 mps 739 mmHg 97%
10:00 +3°C° 0.2 mm 2 mps 739 mmHg 96%
11:00 +3°C° 0.2 mm 2 mps 739 mmHg 95%
12:00 +2°C° 0.6 mm 2 mps 740 mmHg 95%
13:00 +1°C° 0.6 mm 3 mps 740 mmHg 95%
14:00 0°C° 0.6 mm 4 mps 740 mmHg 94%
15:00 +2°C° 0.1 mm 3 mps 740 mmHg 85%
16:00 +3°C° 0.1 mm 2 mps 740 mmHg 76%
17:00 +4°C° 0.1 mm 2 mps 740 mmHg 67%
18:00 +3°C° 0 mm 2 mps 741 mmHg 73%
19:00 +1°C° 0 mm 2 mps 741 mmHg 78%
20:00 -1°C° 0 mm 2 mps 741 mmHg 84%
21:00 -1°C° 0 mm 2 mps 741 mmHg 85%
22:00 -2°C° 0 mm 2 mps 741 mmHg 86%
23:00 0°C° 0 mm 1 mps 741 mmHg 87%
Show more